YSRI

RAAF Base Richmond

Airport
ICAO code
YSRI
IATA Code
RCM
Summary
ICAO Region
APAC
ICAO Territory
Location

Hawkesbury, New South Wales

Serving
Richmond
Elevation
1 ft
Coordinates
33° 36' 15" S , 150° 46' 55" E
KCC
Metar
YSRI 191130Z AUTO 25005KT 9999 // NCD 16/13 Q1022 RF00.0/000.2

Royal Australian Air Force base on northern outskirts of Sydney; home to the Air Lift Group.

Climatology

Temperate Marine climate/Oceanic climate (Köppen climate classification Cfb). Moderately cool summer and comparatively warm winter

Airport map

Aerial View

SKYbrary Partners:

Safety knowledge contributed by: